When you browse on this site, cookies collect data to enhance your experience and personalize the content and advertising you see.
Visit our Privacy Policy to learn more. By continuing to use the site, you agree to this use of cookies and data.

Tiempo cada hora Pluzhine

Hoy, 15 Julio, Miércoles

Tiempo Temperatura Precipitaciones Viento Presión Humedad
00:00 +9°C° 0 mm 0 mps 667 mmHg 93%
01:00 +10°C° 0 mm 1 mps 667 mmHg 94%
02:00 +10°C° 0 mm 1 mps 667 mmHg 93%
03:00 +10°C° 0 mm 1 mps 667 mmHg 93%
04:00 +10°C° 0 mm 1 mps 667 mmHg 93%
05:00 +12°C° 0 mm 1 mps 667 mmHg 87%
06:00 +14°C° 0 mm 1 mps 668 mmHg 81%
07:00 +16°C° 0 mm 1 mps 669 mmHg 75%
08:00 +19°C° 0 mm 1 mps 669 mmHg 64%
09:00 +20°C° 0 mm 2 mps 670 mmHg 54%
10:00 +21°C° 0 mm 2 mps 670 mmHg 44%
11:00 +22°C° 0 mm 3 mps 670 mmHg 45%
12:00 +22°C° 0 mm 3 mps 670 mmHg 45%
13:00 +22°C° 0 mm 3 mps 670 mmHg 46%
14:00 +22°C° 0 mm 3 mps 670 mmHg 49%
15:00 +22°C° 0 mm 3 mps 669 mmHg 52%
16:00 +21°C° 0 mm 2 mps 669 mmHg 55%
17:00 +19°C° 0.1 mm 2 mps 669 mmHg 64%
18:00 +17°C° 0.1 mm 2 mps 668 mmHg 73%
19:00 +15°C° 0.1 mm 1 mps 668 mmHg 82%
20:00 +15°C° 0 mm 1 mps 668 mmHg 85%
21:00 +14°C° 0 mm 1 mps 668 mmHg 88%
22:00 +13°C° 0 mm 1 mps 668 mmHg 90%
23:00 +12°C° 0 mm 1 mps 668 mmHg 90%

Mañana, 16 Julio, Jueves

Tiempo Temperatura Precipitaciones Viento Presión Humedad
00:00 +12°C° 0 mm 1 mps 668 mmHg 89%
01:00 +12°C° 0 mm 1 mps 668 mmHg 88%
02:00 +11°C° 0 mm 1 mps 667 mmHg 88%
03:00 +11°C° 0 mm 1 mps 667 mmHg 88%
04:00 +10°C° 0 mm 1 mps 667 mmHg 88%
05:00 +12°C° 0 mm 0 mps 668 mmHg 81%
06:00 +14°C° 0 mm 0 mps 668 mmHg 75%
07:00 +16°C° 0 mm 0 mps 669 mmHg 69%
08:00 +18°C° 0 mm 0 mps 669 mmHg 61%
09:00 +20°C° 0 mm 0 mps 670 mmHg 53%
10:00 +24°C° 0 mm 1 mps 670 mmHg 46%
11:00 +24°C° 0.1 mm 1 mps 670 mmHg 46%
12:00 +24°C° 0.1 mm 1 mps 670 mmHg 46%
13:00 +24°C° 0.1 mm 1 mps 670 mmHg 47%
14:00 +23°C° 0.4 mm 1 mps 669 mmHg 54%
15:00 +22°C° 0.4 mm 1 mps 669 mmHg 61%
16:00 +22°C° 0.4 mm 1 mps 668 mmHg 68%
17:00 +20°C° 0.4 mm 1 mps 668 mmHg 76%
18:00 +18°C° 0.4 mm 1 mps 668 mmHg 83%
19:00 +15°C° 0.4 mm 1 mps 668 mmHg 90%
20:00 +13°C° 0 mm 0 mps 667 mmHg 91%
21:00 +12°C° 0 mm 0 mps 667 mmHg 92%
22:00 +11°C° 0 mm 0 mps 667 mmHg 93%
23:00 +11°C° 0 mm 0 mps 667 mmHg 93%

Pasado mañana, 17 Julio, Viernes

Tiempo Temperatura Precipitaciones Viento Presión Humedad
00:00 +11°C° 0 mm 0 mps 667 mmHg 93%
01:00 +10°C° 0 mm 0 mps 667 mmHg 93%
02:00 +10°C° 0 mm 0 mps 667 mmHg 93%
03:00 +10°C° 0 mm 0 mps 666 mmHg 94%
04:00 +10°C° 0 mm 0 mps 666 mmHg 94%
05:00 +11°C° 0 mm 0 mps 667 mmHg 92%
06:00 +13°C° 0 mm 0 mps 667 mmHg 91%
07:00 +15°C° 0 mm 0 mps 668 mmHg 89%
08:00 +16°C° 0.1 mm 0 mps 668 mmHg 81%
09:00 +20°C° 0.1 mm 1 mps 668 mmHg 73%
10:00 +22°C° 0.1 mm 1 mps 668 mmHg 65%
11:00 +22°C° 0.8 mm 1 mps 668 mmHg 70%
12:00 +22°C° 0.8 mm 1 mps 668 mmHg 76%
13:00 +21°C° 0.8 mm 1 mps 668 mmHg 81%
14:00 +21°C° 1.5 mm 1 mps 668 mmHg 84%
15:00 +20°C° 1.5 mm 1 mps 667 mmHg 86%
16:00 +19°C° 1.5 mm 1 mps 667 mmHg 89%
17:00 +18°C° 1 mm 1 mps 667 mmHg 91%
18:00 +16°C° 1 mm 1 mps 667 mmHg 93%
19:00 +15°C° 1 mm 1 mps 667 mmHg 95%
20:00 +14°C° 0.1 mm 1 mps 667 mmHg 96%
21:00 +14°C° 0.1 mm 1 mps 667 mmHg 97%
22:00 +13°C° 0.1 mm 1 mps 667 mmHg 98%
23:00 +13°C° 0 mm 1 mps 667 mmHg 98%

18 Julio, Sábado

Tiempo Temperatura Precipitaciones Viento Presión Humedad
00:00 +13°C° 0 mm 1 mps 667 mmHg 98%
01:00 +13°C° 0 mm 1 mps 667 mmHg 98%
02:00 +13°C° 0 mm 1 mps 667 mmHg 98%
03:00 +13°C° 0 mm 1 mps 667 mmHg 98%
04:00 +13°C° 0 mm 1 mps 667 mmHg 98%
05:00 +13°C° 0 mm 1 mps 667 mmHg 98%
06:00 +13°C° 0 mm 1 mps 667 mmHg 97%
07:00 +14°C° 0 mm 1 mps 667 mmHg 97%
08:00 +14°C° 0.1 mm 1 mps 667 mmHg 94%
09:00 +15°C° 0.1 mm 1 mps 668 mmHg 92%
10:00 +15°C° 0.1 mm 1 mps 668 mmHg 90%
11:00 +15°C° 0.7 mm 1 mps 668 mmHg 91%
12:00 +15°C° 0.7 mm 1 mps 667 mmHg 92%
13:00 +15°C° 0.7 mm 1 mps 667 mmHg 93%
14:00 +14°C° 0.5 mm 1 mps 667 mmHg 94%
15:00 +14°C° 0.5 mm 1 mps 667 mmHg 95%
16:00 +14°C° 0.5 mm 1 mps 667 mmHg 96%
17:00 +13°C° 0.6 mm 1 mps 667 mmHg 97%
18:00 +13°C° 0.6 mm 1 mps 667 mmHg 98%
19:00 +12°C° 0.6 mm 1 mps 667 mmHg 99%
20:00 +12°C° 0.9 mm 1 mps 667 mmHg 99%
21:00 +12°C° 0.9 mm 1 mps 667 mmHg 99%
22:00 +12°C° 0.9 mm 1 mps 667 mmHg 99%
23:00 +12°C° 0.2 mm 1 mps 667 mmHg 99%

19 Julio, Domingo

Tiempo Temperatura Precipitaciones Viento Presión Humedad
00:00 +12°C° 0.2 mm 1 mps 667 mmHg 99%
01:00 +12°C° 0.2 mm 1 mps 667 mmHg 99%
02:00 +12°C° 0 mm 1 mps 667 mmHg 99%
03:00 +12°C° 0 mm 1 mps 667 mmHg 99%
04:00 +11°C° 0 mm 1 mps 667 mmHg 99%
05:00 +12°C° 0 mm 1 mps 667 mmHg 98%
06:00 +12°C° 0 mm 1 mps 668 mmHg 97%
07:00 +13°C° 0 mm 1 mps 668 mmHg 96%
08:00 +14°C° 0 mm 1 mps 668 mmHg 90%
09:00 +16°C° 0 mm 1 mps 669 mmHg 84%
10:00 +18°C° 0 mm 1 mps 669 mmHg 79%
11:00 +19°C° 0 mm 1 mps 669 mmHg 71%
12:00 +21°C° 0 mm 1 mps 670 mmHg 64%
13:00 +23°C° 0 mm 1 mps 670 mmHg 57%
14:00 +23°C° 0 mm 1 mps 670 mmHg 56%
15:00 +23°C° 0 mm 1 mps 670 mmHg 55%
16:00 +23°C° 0 mm 1 mps 670 mmHg 53%
17:00 +20°C° 0 mm 1 mps 669 mmHg 63%
18:00 +18°C° 0 mm 1 mps 669 mmHg 72%
19:00 +14°C° 0 mm 0 mps 668 mmHg 82%
20:00 +13°C° 0 mm 0 mps 668 mmHg 85%
21:00 +12°C° 0 mm 0 mps 668 mmHg 88%
22:00 +11°C° 0 mm 0 mps 668 mmHg 91%
23:00 +11°C° 0 mm 0 mps 668 mmHg 91%

20 Julio, Lunes

Tiempo Temperatura Precipitaciones Viento Presión Humedad
00:00 +10°C° 0 mm 0 mps 668 mmHg 92%
01:00 +10°C° 0 mm 0 mps 668 mmHg 92%
02:00 +10°C° 0 mm 0 mps 668 mmHg 92%
03:00 +10°C° 0 mm 0 mps 668 mmHg 93%
04:00 +10°C° 0 mm 0 mps 668 mmHg 93%
05:00 +12°C° 0 mm 0 mps 668 mmHg 86%
06:00 +14°C° 0 mm 0 mps 669 mmHg 79%
07:00 +16°C° 0 mm 0 mps 670 mmHg 71%
08:00 +20°C° 0 mm 1 mps 670 mmHg 63%
09:00 +21°C° 0 mm 1 mps 671 mmHg 55%
10:00 +23°C° 0 mm 1 mps 671 mmHg 47%
11:00 +24°C° 0 mm 2 mps 671 mmHg 46%
12:00 +24°C° 0 mm 2 mps 671 mmHg 45%
13:00 +25°C° 0 mm 2 mps 671 mmHg 43%
14:00 +25°C° 0 mm 2 mps 671 mmHg 45%
15:00 +25°C° 0 mm 2 mps 671 mmHg 47%
16:00 +24°C° 0 mm 2 mps 671 mmHg 49%
17:00 +22°C° 0 mm 1 mps 670 mmHg 58%
18:00 +20°C° 0 mm 1 mps 670 mmHg 68%
19:00 +16°C° 0 mm 0 mps 669 mmHg 78%
20:00 +15°C° 0 mm 0 mps 669 mmHg 81%
21:00 +14°C° 0 mm 0 mps 669 mmHg 85%
22:00 +13°C° 0 mm 0 mps 669 mmHg 88%
23:00 +12°C° 0 mm 0 mps 669 mmHg 89%
Mostrar más